AirNav   ProFlight Series 2 Aviation Headset
 
 1105 users online  

1A4 Logan Field Airport
Samson, Alabama, USA

GOING TO SAMSON?


FAA INFORMATION EFFECTIVE 08 OCTOBER 2020

Location

FAA Identifier: 1A4
Lat/Long: 31-06-13.3300N 086-03-45.3600W
31-06.222167N 086-03.756000W
31.1037028,-86.0626000
(estimated)
Elevation: 200 ft. / 61 m (estimated)
From city: 1 mile SW of SAMSON, AL
Time zone: UTC -5 (UTC -6 during Standard Time)
Zip code: 36477

Airport Operations

Airport use: Open to the public
Activation date: 12/2003
Control tower: no
ARTCC: JACKSONVILLE CENTER
FSS: ANNISTON FLIGHT SERVICE STATION
NOTAMs facility: ANB (NOTAM-D service available)
Attendance: UNATNDD
Wind indicator: yes
Segmented circle: no
Lights: ACTVT MIRL RY 05/23 - CTAF.
Beacon: white-green (lighted land airport)
Operates sunset to sunrise.

Airport Communications

CTAF: 122.9
WX AWOS-3PT at EDN (14 nm NE): 118.9 (334-347-3524)

Nearby radio navigation aids

VOR radial/distance  VOR name  Freq  Var
EDNr218/(14.2)ENTERPRISE VOR116.6003W
OZRr243/19.9CAIRNS VOR/DME111.2003W
HEYr235/(26.6)HANCHEY VOR110.6003W
RRSr249/34.2WIREGRASS VORTAC111.6002E
CEWr059/35.8CRESTVIEW VORTAC115.9003E

 
NDB name  Hdg/Dist  Freq  Var  ID
RUCKR243/14.621203WOZ --- --..
BOLL WEEVIL199/14.735203WBVG -... ...- --.
JUDD128/20.726402WJUY .--- ..- -.--
LOWE230/22.526903WLOR .-.. --- .-.
HANCHEY235/26.622103WHYE .... -.-- .

Airport Services

Airframe service: NONE
Powerplant service: NONE

Runway Information

Runway 5/23

Dimensions: 3596 x 75 ft. / 1096 x 23 m
Surface: asphalt, in fair condition
Runway edge lights: medium intensity
RUNWAY 5  RUNWAY 23
Latitude: 31-06.039167N31-06.405167N
Longitude: 086-04.027667W086-03.484333W
Traffic pattern: leftleft
Displaced threshold: 476 ft.181 ft.
Markings: basic, in fair conditionbasic, in fair condition
Obstructions: 56 ft. trees, 1493 ft. from runway, 65 ft. right of centerline, 23:1 slope to clear
16:1 SLOPE TO DSPLCD THLD.
98 ft. tree, 1431 ft. from runway, 35 ft. left of centerline, 12:1 slope to clear
15:1 SLOPE TO DSPLCD THLD.

Airport Ownership and Management from official FAA records

Ownership: Publicly-owned
Owner: CITY OF SAMSON
104 E MAIN STREET
SAMSON, AL 36477
Phone 334-898-7541
Manager: AIR HAMMER/MIKE PASCOE
395 S. MAGNOLIA ST
SAMSON, AL 36477
Phone 334-898-1303
AFTER HOURS 334-898-2700.

Airport Operational Statistics

Aircraft based on the field: 5
Single engine airplanes: 3
Multi engine airplanes: 2
    
Aircraft operations: avg 23/day *
96% transient general aviation
4% local general aviation
* for 12-month period ending 17 January 2020

Additional Remarks

RY 5/23 CLSD TO HEL WITH TAILWHEELS EXC ADJ SOD AREA.
FOR CD CTC CAIRNS APCH AT 334-255-8402 OR 334-255-8460, WHEN APCH CLSD CTC JACKSONVILLE ARTCC AT 904-845-1592.

Instrument Procedures

There are no published instrument procedures at 1A4.

Some nearby airports with instrument procedures:

33J - Geneva Municipal Airport (10 nm E)
0J4 - Florala Municipal Airport (13 nm W)
KEDN - Enterprise Municipal Airport (14 nm NE)
KOZR - Cairns Army Airfield (Fort Rucker) (21 nm NE)
79J - South Alabama Regional Airport at Bill Benton Field (21 nm NW)
 
Loc | Ops | Rwys | IFR | FBO | Links
Com | Nav | Svcs | Stats | Notes

Continental Services
AirBoss

 
Area around 1A4 (Logan Field Airport)
 
Road maps at: MapQuest Bing Google
 
Aerial photo
WARNING: Photo may not be current or correct
Aerial photo of 1A4 (Logan Field Airport)
Photo by Mike Pascoe
Photo taken 20-Feb-2012
looking northeast.

Do you have a better or more recent aerial photo of Logan Field Airport that you would like to share? If so, please send us your photo.

 
Sectional chart

 
Airport distance calculator
Flying to Logan Field Airport? Find the distance to fly.

From to 1A4

Sunrise and sunset
Times for 25-Oct-2020
 Local
(UTC-5)
 Zulu
(UTC)
Morning civil twilight06:3111:31
Sunrise06:5611:56
Sunset18:0123:01
Evening civil twilight18:2523:25

Current date and time
Zulu (UTC)  25-Oct-2020 15:12:04
Local (UTC-5)  25-Oct-2020 10:12:04
 
METAR
K0J4 
13nm W 
251458Z AUTO 04003KT 4SM BR OVC002 21/19 A3000 RMK AO2 RAB36E55 SLP156 P0000 60000 T02060189 51016 $
KEDN 
14nm NE 
251455Z AUTO 00000KT 10SM SCT005 BKN010 OVC019 20/20 A2999 RMK AO2 T01990199
KSXS 
19nm NE 
251503Z AUTO 08003KT 10SM OVC007 20/20 A2998 RMK AO2 SLP152
KOZR 
21nm NE 
251456Z AUTO 00000KT 10SM OVC003 20/20 A2998 RMK AO2 SLP153 T02020202 52017
K79J 
22nm NW 
251456Z AUTO 00000KT 10SM OVC005 22/19 A2999 RMK AO2 SLPNO T02220189 51018 $
KLOR 
22nm NE 
251458Z AUTO 00000KT 9SM OVC006 20/20 A2999 RMK AO2 SLP138 60002 T02010195 52018
K54J 
23nm S 
251455Z AUTO 35004KT 10SM OVC004 21/20 A2999 RMK AO2 T02050200
KHEY 
25nm NE 
251458Z AUTO 02003KT 9SM OVC005 20/20 A2998 RMK AO2 SLP153 52017
TAF
NOTAMs
Click for the latest NOTAMs
NOTAMs are issued by the DoD/FAA and will open in a separate window not controlled by AirNav.

 

 
 

Would you like to see your business listed on this page?

 If your business provides an interesting product or service to pilots, flight crews, aircraft, or users of the Logan Field Airport, you should consider listing it here.  To start the listing process, click on the button below
 
Add a business
 

Other Pages about Logan Field Airport

Update a link
 
Copyright © AirNav, LLC. All rights reserved. Privacy Policy  Contact